Theta_e
347 344 332 323 308 304 299 304 309 310 312 317 319 320 318 319 310 303 329 335 341 346 348 352 355 354 353 353 352 352 351 350 350 348 347 347 345 346 346 347 346 346 344 343 342 341 341 340 340
339 338 327 318 306 299 302 308 307 310 315 316 317 317 316 316 329 328 329 340 344 346 347 349 356 355 354 354 353 352 352 351 350 349 347 347 346 346 345 346 347 346 345 344 344 342 341 341 340
336 334 319 311 304 300 301 308 309 312 316 316 315 317 315 317 330 329 331 340 343 338 342 346 355 355 354 353 353 351 350 350 350 350 349 348 348 347 346 346 347 346 346 345 345 345 344 341 342
331 320 318 309 304 306 307 309 312 313 315 316 316 311 318 328 326 333 338 342 340 336 338 346 355 355 353 353 352 351 351 351 351 351 350 350 350 350 349 349 348 347 347 347 346 347 347 346 344
322 314 308 306 308 311 313 312 313 313 313 312 315 311 314 327 334 338 338 338 338 340 343 349 355 355 354 354 353 352 352 352 352 351 351 351 351 351 351 351 350 350 349 349 349 351 351 350 348
312 310 302 300 305 312 313 315 314 313 313 314 314 315 318 328 330 335 341 341 346 345 344 346 354 356 356 356 355 355 354 353 353 353 351 351 350 350 351 351 351 351 351 350 350 352 353 350 349
308 304 302 303 306 310 312 316 313 314 315 317 319 313 319 325 329 330 337 340 341 341 338 337 337 343 357 357 357 356 356 354 355 354 353 352 351 349 347 346 346 346 345 347 347 349 352 352 349
309 307 303 304 305 305 314 314 314 317 317 327 326 314 314 323 329 329 331 331 335 337 337 333 335 340 342 349 357 357 355 354 352 353 351 350 348 345 342 343 342 345 345 344 344 345 349 347 343
308 301 300 304 307 307 315 312 323 327 323 324 326 324 327 330 332 326 325 327 331 334 335 338 340 342 342 347 350 353 353 351 350 346 345 343 333 332 337 343 345 345 345 345 345 343 340 339 339
302 298 302 311 312 309 314 313 316 321 320 320 322 329 332 332 328 328 328 327 329 333 336 337 338 337 340 345 343 343 345 341 337 336 335 333 333 334 339 340 340 341 341 342 344 343 339 337 335
304 304 311 314 316 316 314 315 320 319 316 321 321 324 328 329 328 328 330 331 332 334 329 327 328 329 333 338 337 339 338 334 335 334 333 332 330 332 333 332 331 332 338 334 337 336 334 332 334
310 314 315 316 317 318 317 323 321 322 321 328 328 330 328 327 327 329 331 330 327 324 325 325 325 325 326 334 334 333 330 330 332 330 330 328 330 329 328 329 328 329 332 329 328 331 334 331 332
310 313 315 317 322 323 324 321 316 319 327 328 330 329 328 326 328 332 332 329 324 320 322 323 323 322 322 322 331 332 331 331 328 329 329 330 328 325 324 324 322 325 328 328 328 326 326 326 327
312 314 313 317 321 323 320 316 317 318 323 329 328 327 328 329 332 331 327 323 320 319 319 321 320 320 319 319 319 329 331 328 326 323 322 321 321 318 317 316 315 316 320 325 326 329 326 327 327
314 309 310 312 315 320 321 315 312 319 320 320 331 330 330 332 332 328 327 322 318 318 318 319 319 317 316 316 318 326 329 329 321 319 318 318 315 313 312 312 312 312 315 316 321 322 326 325 324
307 304 301 310 315 318 316 306 317 321 318 319 328 330 331 330 328 327 326 323 319 317 316 317 318 315 314 314 315 319 322 320 319 317 315 316 315 312 310 310 310 311 311 311 312 316 316 313 312
303 297 301 307 316 316 314 309 319 319 317 323 325 328 328 326 327 326 324 321 319 317 316 316 316 314 313 313 313 313 314 315 315 315 314 314 315 313 310 309 309 310 309 308 309 308 307 308 309
300 299 302 305 312 314 311 311 321 323 321 320 322 325 326 324 325 325 323 322 321 319 317 315 315 313 312 312 312 312 312 312 312 313 313 314 313 314 310 310 310 309 308 308 307 306 307 306 306
306 304 305 308 314 310 310 311 315 317 318 317 320 321 323 323 326 325 322 321 321 320 317 315 311 311 310 310 309 309 308 308 310 312 315 315 314 314 312 310 310 310 308 307 307 306 305 306 307
308 306 303 308 312 309 309 308 312 314 317 318 316 322 322 321 322 322 320 318 317 318 317 314 312 310 309 309 308 308 307 309 308 310 311 313 314 314 314 310 309 309 308 307 307 305 304 304 306
304 305 305 305 309 310 309 305 308 313 317 318 316 317 321 321 320 319 318 317 317 316 315 314 312 310 308 308 309 309 307 307 308 308 308 310 313 314 313 311 309 308 307 306 306 306 305 303 305
300 309 309 307 301 296 306 292 302 307 310 314 315 316 317 318 319 317 317 316 316 316 315 313 312 310 309 308 306 305 304 303 305 305 307 309 311 312 313 311 309 307 306 306 305 308 305 303 302
305 311 308 306 301 299 301 295 298 306 305 309 312 314 317 316 317 315 316 316 318 316 312 312 311 308 308 307 306 305 304 304 306 306 306 307 308 310 311 309 308 306 306 306 306 306 304 303 302
312 307 303 302 298 292 297 297 298 302 305 309 312 315 315 312 312 313 313 315 315 314 312 311 309 307 308 307 306 306 305 304 304 304 305 306 306 308 308 308 306 306 306 306 305 305 304 304 303
304 298 291 291 292 290 301 299 299 307 311 313 313 309 311 310 310 310 310 312 313 311 311 310 308 306 307 307 307 306 305 305 304 304 304 304 304 305 306 306 305 305 306 306 305 304 303 303 306
300 298 292 287 288 292 301 296 301 311 314 315 312 309 308 309 308 309 310 312 311 311 310 310 307 306 306 306 306 306 306 306 306 305 306 305 304 305 306 305 305 305 306 306 304 302 303 303 307
302 297 299 295 296 294 297 302 308 310 311 310 307 307 307 308 308 308 309 310 311 311 309 308 307 307 307 307 306 306 307 307 306 306 305 306 305 308 306 305 304 304 305 305 303 301 302 301 302
305 305 295 293 288 287 295 298 299 305 308 311 306 306 309 310 308 309 308 309 309 309 308 307 307 306 306 306 306 307 307 308 307 307 306 305 305 306 306 304 304 303 304 304 302 301 301 301 302
302 298 297 295 296 291 290 295 307 307 310 308 307 307 310 311 308 308 308 308 307 306 305 307 307 306 306 306 306 306 307 308 308 307 306 306 305 305 305 304 304 303 303 302 302 301 302 301 300
303 300 298 293 292 295 295 295 309 309 311 310 309 308 309 309 308 307 307 307 306 304 304 306 307 306 306 307 306 306 306 307 306 307 306 306 305 305 305 305 303 303 302 301 301 302 302 303 305
Wind_Speed
7 6 4 2 5 6 5 6 0 5 5 3 5 5 3 5 4 5 3 7 8 9 7 10 13 11 9 8 7 5 4 3 3 2 1 1 1 2 3 4 5 5 5 5 5 6 7 7 6
6 5 1 3 7 6 6 7 10 7 5 8 9 7 8 4 2 4 4 5 10 9 8 7 14 12 10 9 8 7 5 3 1 1 2 3 4 4 4 4 5 6 6 6 7 8 9 10 8
5 6 4 5 3 4 2 4 3 4 3 0 4 4 4 3 4 4 2 9 6 2 4 2 9 8 8 7 5 4 2 1 2 4 5 6 7 7 7 8 7 7 7 7 8 8 9 10 11
4 2 5 6 6 3 2 2 2 9 7 8 6 6 6 3 3 4 11 9 6 3 3 1 5 5 4 4 4 3 3 5 6 8 8 9 9 10 10 10 10 9 10 10 10 9 10 11 11
4 3 5 3 5 4 4 3 5 9 7 8 3 4 5 6 10 10 9 7 7 4 2 3 2 3 4 4 4 5 6 8 9 9 9 10 11 12 12 12 12 12 12 13 13 11 10 10 11
5 4 5 1 3 2 5 5 7 7 7 8 7 6 3 5 8 7 6 7 8 5 3 2 2 6 5 5 6 8 9 10 10 11 11 11 12 13 13 13 13 13 14 14 15 13 11 11 12
7 4 6 3 2 4 3 3 5 13 7 4 4 6 4 7 7 7 7 7 7 5 7 5 6 6 7 6 7 9 11 10 11 12 12 12 13 12 13 14 15 14 16 15 14 15 13 11 11
5 5 6 3 4 4 1 2 4 5 5 3 3 5 2 2 4 7 7 6 6 5 3 4 3 4 3 3 8 10 11 10 11 13 12 12 12 13 14 15 13 17 16 14 13 14 13 10 12
5 6 3 7 6 5 1 5 6 7 7 7 5 6 5 2 4 5 5 6 5 3 5 12 12 12 6 3 5 9 11 11 10 10 11 9 5 7 9 15 17 16 13 12 12 3 1 2 4
5 6 12 9 5 3 8 6 5 5 7 7 7 8 6 5 4 6 5 6 8 12 14 12 11 11 9 7 7 5 5 5 5 5 6 5 6 6 9 11 16 16 15 13 12 9 9 5 0
4 5 7 3 6 10 5 6 9 8 7 4 11 7 6 6 11 12 12 10 12 12 12 12 10 10 9 7 6 4 3 3 4 7 7 6 4 4 5 5 6 6 11 5 7 5 3 1 2
6 7 6 7 15 9 8 15 28 24 12 4 7 8 6 10 10 11 13 13 13 13 12 13 12 10 8 4 5 5 5 5 5 6 7 4 4 6 6 5 6 5 5 6 4 3 5 3 3
9 5 10 21 24 20 27 27 29 32 20 11 7 7 6 8 8 10 10 9 9 13 10 10 11 10 9 9 6 5 6 4 4 6 8 6 6 5 4 6 5 6 6 5 5 3 4 5 6
5 9 10 15 16 16 28 17 13 18 17 8 4 2 6 8 8 9 8 8 11 10 9 6 10 8 8 7 7 5 5 5 7 6 6 7 4 4 4 5 5 7 6 6 6 4 3 3 4
10 12 8 7 6 8 1 11 10 19 13 11 8 7 8 8 9 10 8 8 8 7 6 7 8 8 9 8 7 5 4 5 5 4 6 7 6 6 6 5 6 5 5 7 6 7 6 4 4
7 5 5 5 3 6 4 5 6 11 11 13 8 11 11 9 8 6 6 5 6 6 8 7 7 7 9 9 6 5 6 5 4 4 5 7 6 6 5 5 5 5 5 4 5 5 5 6 6
7 2 7 2 8 2 3 2 13 9 10 8 3 10 11 8 6 4 4 5 7 7 7 8 7 8 9 8 6 6 7 5 4 4 4 6 7 7 5 4 5 5 4 5 5 3 3 3 5
3 5 4 4 3 4 6 3 7 12 10 5 2 6 9 8 5 4 5 5 7 6 6 6 6 9 7 5 5 5 6 6 5 5 5 7 5 7 5 5 5 5 4 5 5 3 3 2 3
8 6 7 2 2 8 8 5 2 3 2 4 4 5 8 7 6 5 4 5 7 5 6 7 6 6 5 4 3 4 4 4 4 5 6 6 6 7 6 4 5 5 5 4 4 4 4 3 4
10 15 2 1 5 7 4 4 1 4 4 1 4 7 8 7 7 6 5 4 6 5 4 3 5 5 5 3 2 2 1 2 2 3 5 6 7 6 5 5 5 6 5 6 5 4 3 3 3
3 10 9 7 8 9 7 2 4 4 4 2 2 2 4 10 10 7 5 5 6 5 3 2 4 5 5 6 4 4 3 3 4 4 4 4 6 6 5 6 5 5 4 4 5 4 5 3 3
4 6 7 13 5 3 3 4 5 4 7 6 8 4 6 8 6 6 6 6 5 4 3 3 4 4 4 5 5 3 1 1 2 3 3 4 6 6 5 5 5 5 4 6 5 5 3 3 4
4 11 7 4 5 5 2 3 1 2 5 7 7 7 7 8 9 8 7 6 5 5 4 4 4 3 4 4 4 2 2 1 2 2 4 4 4 6 6 5 5 5 4 5 6 6 6 3 2
11 8 8 4 3 4 5 3 5 5 7 5 3 7 7 10 8 6 4 7 6 4 3 4 4 1 3 2 2 3 3 2 2 2 3 3 3 4 5 5 6 5 5 5 5 5 6 5 4
8 7 3 3 5 4 4 2 7 6 5 6 8 7 10 9 7 6 7 7 6 6 5 4 3 2 0 1 2 2 1 1 1 2 2 4 3 3 6 6 6 4 5 6 5 5 5 5 5
5 7 6 3 3 3 4 2 4 5 6 3 8 10 8 9 7 7 7 8 7 6 6 5 4 3 2 2 1 2 1 1 0 1 2 2 2 2 4 5 5 6 6 5 5 3 4 5 5
3 4 4 9 3 3 3 6 3 6 4 7 8 6 7 6 6 7 7 8 7 7 7 7 6 4 4 2 1 2 3 3 2 3 2 2 3 3 4 4 6 6 6 6 6 4 5 5 5
8 5 4 4 4 1 3 4 6 5 7 7 8 8 8 8 7 6 6 7 6 6 5 6 6 6 4 3 1 2 4 3 2 3 4 4 4 5 5 5 5 5 6 6 6 5 5 6 5
4 1 6 6 4 5 1 7 6 11 11 11 10 12 13 11 8 8 7 6 6 5 5 6 6 5 4 3 1 2 3 3 2 3 3 3 3 5 6 5 5 5 6 6 5 6 6 6 5
2 4 6 7 3 2 4 8 3 9 9 10 8 12 10 8 8 7 7 7 7 7 5 6 6 6 6 3 1 2 2 3 2 3 3 3 4 4 4 5 5 5 5 5 6 6 6 5 6
Wind_Direction
136 138 111 95 46 60 8 354 356 61 48 308 72 104 125 55 146 200 307 170 139 155 175 179 175 171 160 152 151 152 148 136 123 116 113 53 352 335 330 328 328 328 330 333 336 337 336 341 20
129 145 43 69 71 48 311 329 74 77 127 116 89 93 55 51 66 108 116 167 148 165 181 178 177 174 171 169 168 171 169 156 158 232 268 277 276 272 268 271 288 296 294 299 308 313 316 320 338
166 225 85 83 89 116 250 357 154 114 164 114 99 60 88 26 7 168 233 140 91 45 1 313 179 176 177 181 187 184 188 206 242 254 253 254 255 261 262 267 264 266 274 275 279 283 291 300 311
215 22 34 100 123 189 154 303 198 109 52 101 107 53 62 319 316 61 94 118 124 66 51 254 175 191 194 215 232 219 221 232 238 243 250 255 259 261 263 263 269 272 275 277 275 275 279 287 296
37 55 59 57 338 342 9 251 162 108 118 79 80 61 20 15 352 91 119 110 99 95 44 47 213 240 245 245 258 266 249 245 248 257 258 259 263 257 256 265 269 269 270 267 268 270 270 275 285
42 94 41 149 268 301 319 279 126 88 96 91 70 80 327 320 25 23 72 92 106 106 81 344 280 245 242 257 271 264 263 266 272 274 278 285 286 287 284 280 275 273 266 269 272 270 272 273 280
128 98 178 208 207 338 267 323 121 126 140 78 80 82 331 347 346 43 58 71 97 99 60 19 358 310 261 242 254 265 271 282 283 286 289 291 293 297 298 302 298 297 299 295 298 283 268 266 270
116 95 120 260 175 237 356 35 17 58 53 27 99 119 129 293 336 57 75 85 82 70 18 323 322 355 267 237 263 269 270 287 292 295 299 298 306 333 339 336 323 318 306 289 279 290 276 278 308
135 75 197 173 155 218 42 77 13 11 62 43 356 82 92 90 30 70 49 43 57 350 16 18 8 6 3 299 273 284 289 294 329 341 345 351 351 338 333 335 331 327 307 298 281 260 135 226 359
101 133 198 184 170 143 67 41 112 56 34 39 52 53 79 72 67 91 48 52 42 29 25 19 17 12 9 2 333 314 308 344 350 6 4 356 359 334 4 356 0 355 345 335 290 253 229 238 281
144 173 184 142 80 54 102 56 44 102 55 21 116 134 74 38 43 48 45 38 40 52 39 19 14 11 13 357 356 7 25 15 20 22 20 18 8 346 16 6 356 337 345 340 322 302 280 320 109
98 31 39 61 53 56 46 71 55 31 17 14 60 58 63 59 50 52 53 50 42 44 31 22 14 18 17 21 28 24 36 22 21 33 32 27 22 20 10 5 339 341 340 330 348 334 323 349 301
43 36 55 86 80 81 81 79 60 34 3 359 320 58 80 79 59 63 71 64 60 54 38 31 18 15 7 24 18 33 39 43 23 25 32 22 26 17 358 5 350 338 350 334 324 332 320 327 297
96 83 80 81 96 98 98 86 100 36 356 283 288 226 108 82 89 79 59 59 62 59 42 28 32 11 13 22 15 28 53 33 37 27 27 30 28 18 13 356 348 354 352 340 330 331 307 316 314
110 103 80 113 150 151 114 33 119 129 209 254 176 161 97 89 81 75 77 66 73 58 41 28 36 360 22 21 23 31 28 46 40 27 26 25 20 19 16 8 359 347 345 354 344 354 359 355 336
118 77 107 9 75 331 91 169 212 150 198 256 180 134 108 90 92 92 95 102 72 74 51 41 28 23 21 22 25 22 27 28 21 13 9 6 11 20 19 8 358 340 353 354 352 7 350 353 351
358 139 105 77 350 164 104 149 204 192 214 240 110 119 114 117 97 88 105 100 77 65 51 42 17 19 17 17 23 29 25 27 10 17 15 13 14 11 13 9 345 351 351 359 351 344 4 352 340
140 111 56 94 310 47 77 107 170 173 232 259 115 123 143 142 139 141 125 106 92 75 57 55 26 19 9 22 23 28 35 17 20 22 30 19 358 359 4 359 353 350 355 353 350 344 330 287 317
116 109 119 174 198 70 73 81 238 284 212 248 142 154 169 153 145 153 135 123 101 74 64 50 45 6 26 22 19 14 17 349 3 6 7 8 3 355 359 350 349 351 1 339 338 320 342 314 338
101 108 49 12 87 89 102 92 313 278 268 242 173 192 172 142 148 167 154 125 91 104 86 66 57 22 15 30 9 50 359 348 314 326 4 3 351 343 355 349 343 356 348 348 353 12 326 296 355
171 148 186 147 109 53 114 358 289 295 305 242 263 67 138 168 163 174 169 146 113 116 142 140 82 42 30 39 30 20 22 356 360 356 335 334 332 339 359 351 350 349 352 343 334 351 18 333 313
134 152 136 130 93 179 192 281 210 229 271 254 249 232 195 167 152 162 183 148 146 157 163 150 102 61 60 64 62 64 95 11 276 275 308 326 339 346 349 351 1 1 343 358 340 349 349 2 342
133 109 128 97 85 115 345 110 203 96 251 234 233 215 193 172 164 180 189 155 160 165 170 143 110 75 77 78 97 94 53 313 294 303 355 345 344 350 346 352 3 11 355 351 359 354 352 2 320
125 82 50 63 81 48 308 91 303 215 203 209 198 216 166 168 166 180 156 139 159 169 153 144 133 85 81 98 103 81 66 6 8 332 8 344 333 336 346 347 357 5 5 1 349 347 358 348 338
78 69 29 2 13 216 311 61 227 249 219 183 177 174 167 147 148 166 160 157 174 178 181 170 162 166 20 350 60 23 343 51 48 357 6 11 343 339 350 357 356 350 353 358 2 1 355 352 354
172 145 147 230 185 261 331 293 275 230 166 156 156 162 137 150 159 185 175 172 180 182 191 180 181 201 231 238 299 318 303 288 324 2 8 6 353 341 345 351 359 353 356 2 8 3 355 354 0
172 38 165 107 62 79 279 297 336 73 121 122 145 137 150 150 180 180 166 173 181 183 190 189 188 219 244 225 257 346 337 360 1 19 20 359 3 337 1 18 7 2 359 4 6 17 10 354 355
112 155 40 23 126 225 285 273 237 186 174 174 151 166 178 173 179 167 175 166 178 182 196 189 192 199 213 220 279 331 332 351 15 27 25 22 11 14 8 18 21 11 10 4 8 5 0 10 1
35 45 51 108 111 145 220 260 221 196 187 181 174 172 183 183 179 181 169 172 160 166 193 194 202 207 224 234 272 324 345 2 38 32 17 18 7 14 16 24 24 17 10 1 9 358 9 13 359
137 162 129 116 219 127 143 275 293 229 194 162 166 178 184 182 181 171 170 173 167 176 186 197 212 215 222 226 235 300 315 356 27 17 3 6 14 17 20 26 28 20 11 8 11 9 359 4 7